www.pogodaiklimat.ru

Погода и климат >> Архив погоды >> Колумбия >> Valledupar


ПОГОДА в Valledupar

  • Прогноз погоды в Valledupar
  • Монитор погоды в Valledupar
  • Климат города

АРХИВ ПОГОДЫ в Valledupar

Время (UTC), дата Ветер
(напр.,м/с)
 
Видим.   Явления Облачность Т
(С)
Тd
(С)
f
(%)
Тe
(С)
Тes
(С)
Комфортность P
(гПа)
Po
(гПа)
Тmin
(С)
Tmax
(С)
R
(мм)
R24
(мм)
S
(см)
00 18.05 СВ 4 15 км мгла {гроза} 10/1 450 м
[Sc Ac trans Cs]
+28.0 +22.3 71 +37 +37 очень
душно
1010.7 1093.1 +33.8
12 18.05 СВ 6 15 км мгла 6/1 300 м
[Sc Cs]
+25.4 +22.0 81 +33 +34 очень
душно
1011.5 1093.9 +24.2
15 18.05 СВ 6 15 км мгла 4/1 450 м
[Cu Sc Ci sp]
+30.6 +22.3 61 +40 +45 очень
душно
1012.4 1094.8
18 18.05 СЗ 2 15 км мгла 8/4 600 м
[Cu med, cong Ac As Cs]
+30.8 +23.9 67 +42 +50 опасность
перегрева
1010.8 1093.2
21 18.05 штиль 0 15 км осадки на расстоянии 10/3 600 м
[Cu med, cong Ac As Cs]
+28.9 +23.9 74 +40 +42 очень
душно
1009.5 1091.9
00 19.05 В 2 10 км мгла 10/3 600 м
[Cu Sc Ac As Cs]
+25.8 +22.8 84 +34 +34 очень
душно
1011.2 1093.6 +33.0
12 19.05 штиль 0 6000 м туман на расстоянии 10/4 300 м
[Frnb Ac As Cs]
+24.0 +22.6 92 +31 +32 очень
душно
1014.5 1096.9 +23.8
15 19.05 В 4 8000 м мгла 10/3 300 м
[Frnb Ac As Cs]
+26.9 +22.6 77 +35 +39 очень
душно
1015.2 1097.6
18 19.05 СВ 5 10 км мгла 10/3 300 м
[Cu Sc Ac As Cs]
+29.0 +23.2 71 +39 +43 очень
душно
1013.0 1095.4
21 19.05 В 4 10 км мгла 10/1 300 м
[Cu Sc Ac trans Cs]
+29.8 +23.2 68 +40 +42 очень
душно
1010.9 1093.3
00 20.05 СВ 5 10 км осадки на расстоянии 10/3 450 м
[Cu Sc Ac As Cs]
+27.4 +22.7 76 +36 +36 очень
душно
1012.1 1094.5 +30.2
03 20.05 СВ 2 5000 м морось 10/5 150 м
[Sc As op Cs]
+25.2 +23.8 92 +34 +34 очень
душно
1013.8 1096.2
12 20.05 СВ 3 9000 м мгла 6/1 600 м
[Cu Sc Ac As Cs]
+25.6 +23.1 86 +34 +35 очень
душно
1013.6 1096.0 +24.0 0.1
15 20.05 В 3 10 км мгла 5/1 600 м
[Cu Sc Cs]
+30.1 +23.4 67 +41 +52 опасность
перегрева
1013.5 1095.9
18 20.05 В 4 15 км мгла 6/3 600 м
[Cu med, cong Ci sp]
+33.4 +25.8 65 +49 +58 опасность
перегрева
1010.7 1093.1
21 20.05 штиль 0 15 км мгла 9/3 450 м
[Cu med, cong Ac trans Ci sp]
+28.8 +21.9 66 +37 +40 очень
душно
1009.8 1092.2
00 21.05 В 4 10 км слабая морось 10/4 450 м
[Cu Sc Ac As Cs]
+26.0 +22.1 79 +34 +34 очень
душно
1011.4 1093.8 +33.4
12 21.05 СВ 4 8000 м мгла 8/1 300 м
[Sc Ac trans Cs]
+25.6 +23.1 86 +34 +35 очень
душно
1013.4 1095.8 +25.0 0.0
15 21.05 В 2 10 км мгла 9/5 450 м
[Cu Sc Ac trans Cs]
+29.6 +23.9 71 +41 +46 опасность
перегрева
1014.4 1096.8
18 21.05 Ю 4 10 км мгла 9/3 450 м
[Cu Sc Ac As Cs]
+31.2 +23.3 63 +42 +47 опасность
перегрева
1012.2 1094.6
21 21.05 Ю 2 10 км осадки на расстоянии 10/3 450 м
[Cu med, cong Ac As Cs]
+28.1 +22.7 73 +37 +39 очень
душно
1010.8 1093.2
00 22.05 штиль 0 10 км мгла 10/3 450 м
[Cu Sc Ac As Cs]
+26.3 +23.4 84 +36 +36 очень
душно
1012.5 1094.9 +32.2
12 22.05 СВ 3 7000 м туман на расстоянии 8/1 300 м
[Frnb Ac As Cs]
+24.4 +23.3 94 +33 +34 очень
душно
1013.8 1096.2 +22.7 13
15 22.05 СВ 6 10 км мгла 5/3 300 м
[Frnb Ac trans Cs]
+29.9 +25.0 75 +43 +47 опасность
перегрева
1013.4 1095.8
18 22.05 В 5 15 км мгла 5/3 450 м
[Cu med, cong Ci sp]
+32.6 +23.3 58 +43 +50 опасность
перегрева
1011.1 1093.5
21 22.05 Ю 4 10 км гроза без осадков 10/4 450 м
[Cb cap Ac trans Cs]
+29.0 +22.9 70 +39 +40 очень
душно
1009.6 1092.0
00 23.05 СЗ 2 6000 м гроза, ливневой дождь 10/8 450 м
[Cb cap Ac As Cs]
+24.0 +22.8 93 +32 +32 очень
душно
1012.6 1095.0 +34.2
12 23.05 СВ 2 8000 м мгла 9/1 300 м
[Sc Ac trans Cs]
+26.6 +23.3 82 +36 +37 очень
душно
1014.0 1096.4 +24.0 2
15 23.05 В 5 15 км мгла 6/1 600 м
[Cu Sc Cs]
+30.2 +23.1 66 +40 +48 очень
душно
1014.5 1096.9
18 23.05 В 3 15 км мгла 6/3 600 м
[Cu Sc Ci sp]
+33.6 +23.3 55 +44 +55 опасность
перегрева
1012.7 1095.1
21 23.05 ЮЗ 2 15 км мгла 8/3 600 м
[Cu Sc Ac As Cs]
+31.7 +24.3 65 +44 +47 опасность
перегрева
1011.0 1093.4
00 24.05 штиль 0 15 км мгла 9/1 600 м
[Cu Sc Ac As Cs]
+28.9 +25.3 81 +42 +42 опасность
перегрева
1011.6 1094.0 +34.5
12 24.05 В 3 7000 м мгла 8/1 300 м
[Cu Sc Ac As Cs]
+26.0 +23.5 86 +35 +36 очень
душно
1014.7 1097.1 +25.0
15 24.05 В 3 9000 м мгла 6/1 450 м
[Cu Sc Ac As Cs]
+30.8 +24.4 69 +43 +52 опасность
перегрева
1015.1 1097.5
18 24.05 ЮЗ 2 10 км осадки на расстоянии 8/4 450 м
[Cu med, cong Ac trans Cs]
+33.0 +23.8 59 +45 +53 опасность
перегрева
1012.7 1095.1
21 24.05 ЮЗ 2 10 км осадки на расстоянии 9/4 450 м
[Cu med, cong Ac trans Cs]
+33.6 +24.8 60 +47 +49 опасность
перегрева
1010.7 1093.1

 

Местоположение метеостанции Valledupar (Колумбия): широта 10.43 долгота -73.25 высота над уровнем моря 138 м.

В архиве по умолчанию представлена погода в Valledupar за последнюю неделю. Архивные данные за месяц целиком и за предыдущие месяцы, начиная с января 2011 года, Вы можете получить, выбрав интересующий диапазон дат из раскрывающегося списка и нажав кнопку "Ввод!".


*Определитесь, кто Вы:
робот инопланетянин человек

Внимание! Время в таблицах - всемирное. Для получения местного времени необходимо прибавить поправку, которая в Valledupar равна -5 ч.

Смотрите также архив погоды в соседних городах и на ближайших метеорологических станциях:

Погода в Riohacha (Колумбия) (127 км)
Погода в Santa Marta (Колумбия) (132 км)
Погода в Maracaibo - La Chinit (Венесуэла) (167 км)
Погода в Barranquilla (Колумбия) (175 км)
Погода в Maracaibo - La Canada (Венесуэла) (175 км)
Погода в Cartagena (Колумбия) (247 км)
Погода в Mene Grande (Венесуэла) (263 км)
Погода в El Vigia (Венесуэла) (266 км)
Погода в Cucuta (Колумбия) (290 км)
Погода в San Antonio del Tachira (Венесуэла) (300 км)

Пояснения к столбцам:

Ветер - указаны скорость ветра в м/с - средняя за 10 мин, порывы в срок и между сроками (в фигурных скобках) и направление, откуда дует ветер: С - северный, СВ - северо-восточный, В - восточный, ЮВ - юго-восточный, Ю - южный, ЮЗ - юго-западный, З - западный, СЗ - северо-западный.
Видимость - горизонтальная дальность видимости в метрах или километрах. При видимости от 1 до 10 км при отсутствии осадков обычно наблюдается дымка, при ухудшении видимости до 1 км и менее - туман. В сухую погоду видимость может ухудшаться дымом, пылью или мглою.
Явления - указаны атмосферные явления, наблюдавшиеся в срок или в последний час перед сроком; фигурными скобками обозначены явления, наблюдавшиеся между сроками (за 1-3 часа до срока); квадратными скобками обозначены град или гололедные отложения с указанием их диаметра в мм.
Облачность - указаны через наклонную черту общая и нижняя облачность в баллах и высота нижней границы облаков в метрах; квадратными скобками обозначены формы облаков: Ci - перистые, Cs - перисто-слоистые, Cc - перисто-кучевые, Ac - высококучевые, As - высокослоистые, Sc - слоисто-кучевые, Ns - слоисто-дождевые, Cu - кучевые, Cb - кучево-дождевые. Подробнее классификацию облаков см. в Атласе облаков (PDF).
T - Температура воздуха - температура, измеренная на высоте 2 м над землей.
Td - Температура точки росы - температура, при понижении до которой содержащийся в воздухе водяной пар достигнет насыщения.
f - Относительная влажность воздуха - влажноcть воздуха, измеренная на высоте 2 м над землей.
Te - Эффективная температура - температура, которую ощущает одетый по сезону человек в тени. Характеристика душности погоды. При расчете учитывается влияние влажности воздуха и скорости ветра на теплоощущения человека.
Tes - Эффективная температура на солнце - температура, которую ощущает человек, с поправкой на солнечный нагрев. Характеристика знойности погоды. Зависит от высоты солнца над горизонтом, облачности и скорости ветра. Ночью, в пасмурную погоду, а также при ветре 12 м/с и более поправка равна нулю.
P - Атмосферное давление - приведенное к уровню моря атмосферное давление.
Po - Атмосферное давление - измеренное на уровне метеостанции атмосферное давление.
Tmin - Минимальная температура - минимум температуры воздуха на высоте 2 м над землей.
Tmax - Максимальная температура - максимум температуры воздуха на высоте 2 м над землей.
R - Количество осадков - Количество выпавших осадков за период времени, мм. При наведении курсора мыши на число - период времени, за который выпало указанное количество осадков.
R24 - Количество осадков - Количество выпавших осадков за 24 часа, мм.
S - Снежный покров - Высота снежного покрова, см. При наведении курсора мыши на число - состояние снежного покрова и степень покрытия местности в баллах.